Regional Weather Roundup
Issued by NWS State College, PA

Home | Current Version | Previous Version | Text Only | Print | Product List | Glossary Off
Versions: 1 2 3 4 5 6 7 8 9 10 11 12 13 14 15 16 17 18 19 20 21 22 23 24 25 26 27 28 29 30 31 32 33 34 35 36 37 38 39 40 41 42 43 44 45 46 47 48 49 50

000
ASUS41 KCTP 290303
RWRCTP

REGIONAL WEATHER ROUNDUP
NATIONAL WEATHER SERVICE STATE COLLEGE PA
1000 PM EST WED JAN 28 2015

Note: "fair" indicates few or no clouds below 12,000 feet with no
significant weather and/or obstructions to visibility.

* = STATION THAT DOES NOT REPORT PRECIPITATION /E.G. RAIN...SNOW...ETC/
    THUNDER OR FOG.

PAZ002>004-007>009-013>016-020>023-029>032-290400-
WESTERN PENNSYLVANIA

CITY           SKY/WX    TMP DP  RH WIND       PRES   REMARKS
ERIE           PTCLDY    19   2  47 S7        30.28F WCI  10
MEADVILLE      MOCLDY    18   2  49 S7        30.24F WCI   9
FRANKLIN*      MOCLDY    14   1  57 S7        30.26S WCI   4
NEW CASTLE     FAIR      18   6  59 CALM      30.30F
BEAVER COUNTY  NOT AVBL
BUTLER*        PTCLDY    16   7  67 SE5       30.30S WCI   9
PITTSBURGH INT MOCLDY    14   9  80 SE3       30.28F
PITTSBURGH     PTCLDY    17   9  70 S6        30.28F WCI   9
INDIANA*       CLEAR      5   3  92 E3        30.32F
LATROBE          N/A      9   7  92 CALM      30.32
WASHINGTON CO* PTCLDY    10   7  85 CALM      30.29F
$$

PAZ004>006-010>012-017>019-024>028-033>037-041-042-045-046-049>053-290400-
CENTRAL PENNSYLVANIA

CITY           SKY/WX    TMP DP  RH WIND       PRES   REMARKS
BRADFORD       PTCLDY     4  -4  69 CALM      30.20F
DUBOIS         PTCLDY    14   3  61 CALM      30.23F
CLEARFIELD     PTCLDY    12   6  77 SW3       30.28S
JOHNSTOWN      PTCLDY    12   5  73 S5        30.21F WCI   4
ALTOONA        PTCLDY    14   5  67 SW8       30.28S WCI   3
STATE COLLEGE  NOT AVBL
WILLIAMSPORT   PTCLDY    18   4  54 CALM      30.32R
SELINSGROVE    PTCLDY    10   2  69 NW8       30.31R WCI  -2
FT INDIANTOWN  FAIR      19   3  49 VRB5      30.29S WCI  12
CAPITAL CITY   CLEAR     23   5  46 W9        30.32R WCI  13
HARRISBURG     PTCLDY    21   7  54 NW10      30.31R WCI  10
YORK           PTCLDY    11   2  67 W6        30.30R WCI   1
$$

PAZ038>040-043-044-047-048-054-055-060>062-067>071-290400-
EASTERN PENNSYLVANIA

CITY           SKY/WX    TMP DP  RH WIND       PRES   REMARKS
SCRANTON       CLEAR     18   5  57 N7        30.27S WCI   9
MOUNT POCONO   CLEAR     16   3  56 NW10      30.17R WCI   4
ALLENTOWN      CLEAR     24   2  38 NW8       30.28R
QUAKERTOWN*    CLEAR     25   1  36 N8        30.28R
READING        CLEAR     21   3  45 VRB3      30.28S
LANCASTER      FAIR      18   4  54 W8        30.28S WCI   8
COATESVILLE    CLEAR     18   7  62 NW9       30.27S WCI   6
POTTSTOWN      CLEAR     15   1  53 CALM      30.30R
BLUE BELL      CLEAR     28   3  34 CALM      30.28R
DOYLESTOWN     CLEAR     22   2  42 NW7       30.26R WCI  13
WILLOW GROVE   NOT AVBL
NORTH PHILA    CLEAR     28   1  31 NW7       30.30R
PHILADELPHIA   FAIR      29   3  33 N9        30.30R
$$



USA.gov is the U.S. government's official web portal to all federal, state and local government web resources and services.